sat.trackr.live / text

‹ back to catalog

STARLINK-36472

NORAD 67346 · 2026-003N

PAYLOAD ACTIVE UNKNOWN

§ Identity

Operator
Country
US
Launch date
2026-01-09
Launch site
AFETR
Launch vehicle
Mass (kg)
RCS (m²)

Purposes: comms

External: N2YO · Heavens-Above · Gunter

§ Orbital elements

Epoch: 2026-09-19T13:51:59.895648Z

Period
94.27 min
Inclination
42.9981°
Eccentricity
0.0000127
Mean motion
15.27582406 rev/d
Perigee alt
483.0 km
Apogee alt
483.1 km
Semi-major
6,861.2 km
B*
2.8694e-4
RAAN
212.3472°
Arg perigee
14.1015°
Mean anomaly
345.9840°
Rev number
3,846

§ Raw data

STARLINK-364721 67346U 26003N   26262.57777657  .00007643  00000+0  28694-3 0  99972 67346  42.9981 212.3472 0000127  14.1015 345.9840 15.27582406 38468

JSON: /api/v1/satellites/67346 · /tle

For live sub-satellite position, see the globe view (requires WebGL).

§ Visibility from observer

Set your observer location to see the next 7 days of passes ≥ 10°. The values pass through the URL so the page stays shareable.

No JS? Fill the form by hand. The geolocation button needs JavaScript.